Location: Julian California
(33.0790°N, 116.6010°W)
Time: 07:39:25
(UTC-07:00)

Helios 1A - Pass Details

Date: 12 July 2018
Orbit: 585 x 604 km, 98.2° (Epoch: 16 July)

Event Time Altitude Azimuth Distance (km) Brightness Sun altitude
Exits shadow 22:29:51 67° 2° (N) 653 3.2 -25.4°
Drops below altitude 10° 22:33:33 10° 349° (N) 1,950 6.4 -25.9°
Sets 22:35:44 0° 349° (N) 2,858 7.5 -26.2°
